ONEWEB-0534, 55797

Orbit data source: Space-Track

ONEWEB-0534, 55797 is a payload satellite owned by One Web (NAA) (UK) in LEO that was launched on Thu, 09 Mar 2023 UTC via an FALCON 9 launch vehicle from the Air Force Eastern Test Range (AFETR). Payload-class satellites include a variety of spacecraft equipped with specific instruments for various scientific and technological missions. These include communications satellites like Starlink; space stations such as the ISS; scientific satellites like the Hubble; Earth observation satellites from companies like Planet Labs, Umbra, and HawkEye 360; GPS; miniature CubeSats for education and research; and military/defense satellites.

Loading next visibility...
Identifier
55797, 2023-029B
Orbit
LEO
Country
Flag of UKUK
Related business
Manufacturer
One Web
Mission
Operational Commercial Communications
Bus & Motor
ARROW, Unknown motor
Mass
148 kg wet, ~140 kg dry
Launch date (UTC)
2023-03-09 (3 years ago)
Launch vehicle
FALCON 9
Launch site
Air Force Eastern Test Range (AFETR)
Object type
Payload
Rocket body
Debris
Shape & HBR
Trap Box + 2 Pan, 6.7 m
Radar Cross Section
3.464 m², Large (>1 m²)

Expand to show TLE details & history
Last TLE update: 2 days ago

TLE from 2 days ago
0 ONEWEB-0534
1 55797U 23029B   26171.33568596  .00000068  00000-0  13644-3 0  9996
2 55797  87.9187 273.8419 0001871 100.5906 259.5438 13.20771763161569
Epoch: 2026-06-20T08:03Z
TLE epoch observation values (Epoch: 2026-06-20T08:03:23.266Z)
Latitude
-0.00006°
Longitude
-115.55682°
Altitude
1,184.934 km
Speed
7.261 km/s
True Right ascension
18h 15m 22s
True Declination
0° 00' 00"
Sunlit
Object was in full shadow at epoch
Visualization orbit readout
Latitude
Unknown
Longitude
Unknown
Altitude
Unknown
Speed
Unknown
Apparent Right ascension
Unknown
Apparent Declination
Unknown
Sunlit
N/A
Visualization observer readout
Local Sidereal Time
21:38:56
Azimuth
Unknown
Elevation
Unknown
Doppler factor
Unknown
Orbital elements
Apogee altitude
1,180.292 km
Perigee altitude
1,177.464 km
Semi-major axis
7,557.015 km
Eccentricity
0.00019
Inclination
87.9187°
RAAN
273.8419°
Arg. of periapsis
100.5906°
True anomaly
259.52272°
Mean anomaly
259.5438°
Eccentric anomaly
259.53326°
Mean motion
3.30383 °/min
Orbital period
108.96 mins
BSTAR
0.00013644
Loading maneuver chart data...
Computing Atmospheric mass density...
Loading historical data...
Loading historical data...
Loading historical data...
Loading historical data...
Loading historical data...
Loading historical data...
Loading historical data...

Documentation

Showing up to 5 results
|